DECAYED

CZ-4C R/B, 51823 (Decayed)

Orbit data source: Space-Track

CZ-4C R/B, 51823 was space debris in LEO originally from a launch on Sat, 26 Feb 2022 UTC launched from the Jiuquan Satellite Launch Center, China (JSC). Debris objects in space refer to the collection of defunct objects orbiting the Earth. Examples of debris include non-operational satellites, rocket bodies, and fragments generated from explosions, collisions, or faulty payload assembly.

Not visible in the next 10 days
Identifier
51823, 2022-018B
Orbit
Decayed
Country
Flag of CNCN / PRC
Related business
Manufacturer
SAST
Mission
Decayed spacecraft
Bus & Motor
CZ-4 STAGE 3, Unknown motor
Mass
~1,000 kg wet, ~1,000 kg dry
Launch date (UTC)
2022-02-26 (4 years ago)
Launch vehicle
Unknown
Launch site
Jiuquan Satellite Launch Center, China (JSC)
Object type
Payload
Rocket body
Debris
Shape & HBR
Cyl, 2.5 m
Radar Cross Section
14.536 m², Large (>1 m²)

Expand to show TLE details & history
Last TLE update: 1 year ago

TLE from 1 year ago
0 CZ-4C R/B
1 51823U 22018B   25119.90343520  .12756265  27966-5  95608-4 0  9997
2 51823  97.6911 217.4421 0017947 257.5279 102.4018 16.52039042177924
Epoch: 2025-04-29T21:40Z
TLE epoch observation values (Epoch: 2025-04-29T21:40:56.801Z)
Latitude
-0.00001°
Longitude
34.109°
Altitude
139.761 km
Speed
7.821 km/s
True Right ascension
14h 29m 46s
True Declination
0° 00' 00"
Sunlit
Object was in full shadow at epoch
Visualization orbit readout
Latitude
Unknown
Longitude
Unknown
Altitude
Unknown
Speed
Unknown
Apparent Right ascension
Unknown
Apparent Declination
Unknown
Sunlit
N/A
Visualization observer readout
Local Sidereal Time
21:33:44
Azimuth
Unknown
Elevation
Unknown
Doppler factor
Unknown
Orbital elements
Apogee altitude
142.459 km
Perigee altitude
119.095 km
Semi-major axis
6,508.914 km
Eccentricity
0.00179
Inclination
97.6911°
RAAN
217.4421°
Arg. of periapsis
257.5279°
True anomaly
102.60256°
Mean anomaly
102.4018°
Eccentric anomaly
102.50219°
Mean motion
4.13314 °/min
Orbital period
87.1 mins
BSTAR
0.000095608
Loading maneuver chart data...
Computing Atmospheric mass density...
Loading historical data...
Loading historical data...
Loading historical data...
Loading historical data...
Loading historical data...
Loading historical data...
Loading historical data...
Other satellites on launch #18 in the year 2022 (2022-02-26 UTC)

Documentation

Showing up to 5 results
|